Regional Weather Roundup
Issued by NWS Nashville, TN

Home | Current Version | Previous Version | Text Only | Print | Product List | Glossary On
Versions: 1 2 3 4 5 6 7 8 9 10 11 12 13 14 15 16 17 18 19 20 21 22 23 24 25 26 27 28 29 30 31 32 33 34 35 36 37 38 39 40 41 42 43 44 45 46 47 48 49 50
000
ASUS44 KOHX 021710
RWROHX
MIDDLE TENNESSEE HOURLY WEATHER ROUNDUP
NATIONAL WEATHER SERVICE NASHVILLE TN
1200 PM CDT WED SEP 02 2015

NOTE: "FAIR" INDICATES FEW OR NO CLOUDS BELOW 12,000 FEET WITH
NO SIGNIFICANT WEATHER AND/OR OBSTRUCTIONS TO VISIBILITY.

* THESE REPORTS ARE NOT UNDER NWS QUALITY CONTROL AND MAY NOT
  REPORT WEATHER SUCH AS PRECIPITATION AND FOG.


TNZ005>011-023>034-057-059-062>066-078-080-021800
...NORTHERN MIDDLE TENNESSEE...

CITY           SKY/WX    TMP DP  RH WIND       PRES   REMARKS
CLARKSVILLE    MOSUNNY   88  65  46 SE6       30.10F HX  90
CROSSVILLE     MOSUNNY   84  64  50 VRB3      30.18F
DICKSON        SUNNY     88  66  48 SE5       30.12F HX  90
LIVINGSTON     MOSUNNY   86  69  56 NE6       30.16  HX  90
NASHVILLE      PTSUNNY   88  66  48 N5        30.11F HX  90
SMYRNA         MOSUNNY   95  69  42 CALM      30.11F HX 100
$$
TNZ056-058-060-061-075>077-079-093>097-021800
...SOUTHERN MIDDLE TENNESSEE...

CITY           SKY/WX    TMP DP  RH WIND       PRES   REMARKS
COLUMBIA       SUNNY     88  72  58 SE6       30.10F HX  94
LEWISBURG      SUNNY     87  68  53 CALM      30.12F HX  90
MCMINNVILLE    SUNNY     88  72  58 NE3       30.13F HX  94
SHELBYVILLE    PTSUNNY   88  70  55 CALM      30.13F HX  92
TULLAHOMA      SUNNY     84  66  54 CALM      30.14F
WINCHESTER     SUNNY     84  70  61 E3        30.13F
$$


...KEY TO REMARKS...
VSB - VISIBILITY IN MILES
WCI - WIND CHILL INDEX
HX  - HEAT INDEX



USA.gov is the U.S. government's official web portal to all federal, state and local government web resources and services.